Lid_Strength_Index
6 5 5 6 5 6 6 6 6 6 5 5 5 5 6 7 8 8 9 10 10 11
6 6 6 6 6 5 6 7 8 7 7 7 7 6 6 7 8 9 10 10 10 11
6 6 6 7 7 6 7 8 9 9 8 8 8 7 7 8 8 9 9 9 10 12
7 7 7 7 7 7 8 9 10 10 10 9 9 8 8 8 9 10 10 11 12 13
8 8 8 7 7 8 8 10 10 11 11 11 10 10 9 10 10 10 12 13 14 14
9 9 8 8 9 9 10 11 12 12 12 12 12 11 10 10 11 11 12 13 14 15
9 8 8 8 9 10 11 12 13 13 13 14 13 12 12 12 12 12 13 14 14 16
9 9 9 10 11 12 13 13 14 15 15 16 15 14 13 13 13 14 15 15 16 16
10 11 12 12 12 13 14 15 15 15 15 16 14 13 12 13 14 14 15 16 17 16
12 13 12 13 13 13 14 15 15 16 16 16 15 12 12 12 14 15 15 16 16 17
13 13 14 14 14 14 15 15 16 16 16 16 15 13 12 12 15 15 15 16 16 16
14 14 15 15 15 17 17 18 17 17 17 16 15 13 12 12 15 15 16 16 16 15
14 14 14 15 17 18 19 17 17 17 17 16 14 13 12 12 15 16 16 16 15 15
15 16 16 18 18 18 18 17 17 16 16 15 15 14 12 11 15 16 17 16 16 15